Weather History for Lufkin, TX

Change the Weather History Date:

Thursday, August 2, 2012

  Actual Average Record
Temperature  
Mean Temperature 87 °F 83 °F  
Max Temperature 97 °F 95 °F 108 °F (1998)
Min Temperature 77 °F 72 °F 61 °F (1965)
Degree Days  
Heating Degree Days 0 0  
Month to date heating degree days 0 0  
Since 1 June heating degree days 0 0  
Since 1 July heating degree days 0 0  
Cooling Degree Days 22 18  
Month to date cooling degree days 45 36  
Year to date cooling degree days 1922 1507  
Since 1 June cooling degree days 1147 1038  
Growing Degree Days 37 (Base 50)    
Moisture  
Dew Point 73 °F    
Average Humidity 64    
Maximum Humidity 88    
Minimum Humidity 39    
Precipitation  
Precipitation 0.00 in 0.09 in 1.94 in (1949)
Month to date precipitation 0.00 0.19  
Year to date precipitation 28.20 27.44  
Snow  
Snow 0.00 in - - ()
Month to date snowfall 0.0  
Since 1 June snowfall 0.0  
Since 1 July snowfall 0.0  
Snow Depth 0.00 in    
Sea Level Pressure  
Sea Level Pressure 29.89 in    
Wind  
Wind Speed 7 mph (SSW)    
Max Wind Speed 15 mph    
Max Gust Speed 21 mph    
Visibility 10 miles    
Events      
T = Trace of Precipitation, MM = Missing Value Source: NWS Daily Summary

Daily Weather History Graph

Daily Weather History Graph

Search for Another Location

Airport:

Trip Planner

Search our weather history database for the weather conditions in past years. The results will help you decide how hot, cold, wet, or windy it might be!

Date:

Astronomy

Aug. 02, 2012 Rise Set
Actual Time 6:36 AM CDT 8:13 PM CDT
Civil Twilight 6:10 AM CDT 8:39 PM CDT
Nautical Twilight 5:38 AM CDT 9:10 PM CDT
Astronomical Twilight 5:05 AM CDT 9:43 PM CDT
Moon 8:28 PM CDT (8/2) 7:08 AM CDT (8/2)
Length of Visible Light 14h 29m
Length of Day
13h 36m
Full, 100% of the Moon is Illuminated
Aug 2
Full
Aug 9
Last Quarter
Aug 17
New
Aug 24
First Quarter
Aug 31
Full

Hourly Weather History & Observations

Time (CDT) Temp. Heat Index Dew Point Humidity Pressure Visibility Wind Dir Wind Speed Gust Speed Precip Events Conditions
1:53 AM 80.6 °F 86.2 °F 75.2 °F 84% 29.89 in 10.0 mi SSW 6.9 mph - N/A   Clear
2:53 AM 80.1 °F 85.1 °F 75.0 °F 85% 29.87 in 10.0 mi SSW 5.8 mph - N/A   Clear
3:53 AM 78.8 °F - 73.4 °F 83% 29.88 in 10.0 mi SW 6.9 mph - N/A   Clear
4:53 AM 78.1 °F - 73.0 °F 84% 29.87 in 10.0 mi SSW 5.8 mph - N/A   Clear
5:53 AM 78.1 °F - 73.0 °F 84% 29.88 in 10.0 mi SSW 3.5 mph - N/A   Clear
6:53 AM 77.0 °F - 73.0 °F 88% 29.90 in 7.0 mi Calm Calm - N/A   Clear
7:53 AM 78.1 °F - 73.9 °F 87% 29.92 in 10.0 mi South 5.8 mph - N/A   Clear
8:27 AM 80.6 °F 85.4 °F 73.4 °F 79% 29.95 in 10.0 mi South 4.6 mph - N/A   Mostly Cloudy
8:53 AM 81.0 °F 86.7 °F 75.0 °F 82% 29.94 in 10.0 mi SSW 5.8 mph - N/A   Overcast
9:23 AM 84.2 °F 90.9 °F 73.4 °F 70% 29.95 in 10.0 mi SW 8.1 mph - N/A   Partly Cloudy
9:53 AM 86.0 °F 92.2 °F 72.0 °F 63% 29.94 in 10.0 mi SW 11.5 mph - N/A   Unknown
10:53 AM 89.1 °F 96.0 °F 72.0 °F 57% 29.94 in 10.0 mi SW 6.9 mph - N/A   Clear
11:53 AM 91.0 °F 97.6 °F 71.1 °F 52% 29.94 in 10.0 mi South 10.4 mph - N/A   Clear
12:53 PM 93.0 °F 100.1 °F 71.1 °F 49% 29.91 in 10.0 mi SSW 9.2 mph 16.1 mph N/A   Clear
1:53 PM 95.0 °F 97.9 °F 66.0 °F 38% 29.90 in 10.0 mi SW 8.1 mph - N/A   Clear
2:53 PM 97.0 °F 104.8 °F 71.1 °F 43% 29.88 in 10.0 mi Variable 4.6 mph - N/A   Clear
3:53 PM 97.0 °F 104.8 °F 71.1 °F 43% 29.86 in 10.0 mi South 9.2 mph - N/A   Clear
4:53 PM 96.8 °F 105.1 °F 71.6 °F 44% 29.86 in 10.0 mi SSE 10.4 mph 17.3 mph N/A   Clear
5:53 PM 95.0 °F 102.5 °F 71.1 °F 46% 29.83 in 10.0 mi South 11.5 mph - N/A   Clear
6:53 PM 93.0 °F 100.7 °F 72.0 °F 50% 29.83 in 10.0 mi South 10.4 mph - N/A   Clear
7:53 PM 91.0 °F 99.3 °F 73.0 °F 55% 29.83 in 10.0 mi South 8.1 mph - N/A   Clear
8:53 PM 87.1 °F 95.4 °F 73.9 °F 65% 29.84 in 10.0 mi SE 3.5 mph - N/A   Clear
9:53 PM 86.0 °F 95.1 °F 75.0 °F 70% 29.85 in 10.0 mi SSE 6.9 mph - N/A   Clear
10:53 PM 84.0 °F 90.2 °F 73.0 °F 69% 29.86 in 10.0 mi South 5.8 mph - N/A   Clear
11:53 PM 82.9 °F 89.4 °F 73.9 °F 74% 29.86 in 10.0 mi South 3.5 mph - N/A   Clear